Change the Weather History Date:

Monday, January 6, 2014

  Actual Average Record
Temperature  
Mean Temperature 17 °F -  
Max Temperature 19 °F - - ()
Min Temperature 15 °F - - ()
Degree Days  
Heating Degree Days 48    
Moisture  
Dew Point 14 °F    
Average Humidity 86    
Maximum Humidity 93    
Minimum Humidity 79    
Precipitation  
Precipitation 0.00 in - - ()
Sea Level Pressure  
Sea Level Pressure 29.63 in    
Wind  
Wind Speed 15 mph (ENE)    
Max Wind Speed 20 mph    
Max Gust Speed 28 mph    
Visibility 8 miles    
Events      
T = Trace of Precipitation, MM = Missing Value Source: NWS Daily Summary

Daily Weather History Graph

Daily Weather History Graph

Search for Another Location

Airport or City:

Trip Planner

Search our weather history database for the weather conditions in past years. The results will help you decide how hot, cold, wet, or windy it might be!

Date:

Astronomy

Jan. 06, 2014 Rise Set
Actual Time 11:35 AM AKST 3:27 PM AKST
Civil Twilight 10:10 AM AKST 4:52 PM AKST
Nautical Twilight 8:57 AM AKST 6:05 PM AKST
Astronomical Twilight 7:54 AM AKST 7:08 PM AKST
Moon 11:53 AM AKST (1/6) No Moon Set
Length of Visible Light 6h 42m
Length of Day
3h 51m
Waxing Crescent, 36% of the Moon is Illuminated
Jan 6
Waxing Crescent
Jan 7
First Quarter
Jan 15
Full
Jan 23
Last Quarter
Jan 30
New

Hourly Weather History & Observations

Time (AKST) Temp. Windchill Dew Point Humidity Pressure Visibility Wind Dir Wind Speed Gust Speed Precip Events Conditions
12:16 AM 15.8 °F 0.9 °F 12.2 °F 86% 29.66 in 3.0 mi East 15.0 mph 19.6 mph N/A   Overcast
12:36 AM 15.8 °F -0.2 °F 12.2 °F 86% 29.66 in 3.0 mi East 17.3 mph 24.2 mph N/A   Overcast
12:56 AM 15.8 °F 1.4 °F 12.2 °F 86% 29.66 in 3.0 mi ENE 13.8 mph - N/A   Overcast
1:16 AM 15.8 °F 0.3 °F 12.2 °F 86% 29.66 in 10.0 mi ENE 16.1 mph 21.9 mph N/A   Overcast
1:36 AM 15.8 °F -0.2 °F 12.2 °F 86% 29.65 in 10.0 mi ENE 17.3 mph 23.0 mph N/A   Overcast
1:56 AM 15.8 °F -0.6 °F 12.2 °F 86% 29.65 in 8.0 mi ENE 18.4 mph 24.2 mph N/A   Overcast
2:16 AM 15.8 °F 0.3 °F 12.2 °F 86% 29.66 in 10.0 mi East 16.1 mph 24.2 mph N/A   Overcast
2:36 AM 15.8 °F 0.3 °F 12.2 °F 86% 29.67 in 10.0 mi East 16.1 mph 23.0 mph N/A   Overcast
2:56 AM 15.8 °F 0.9 °F 12.2 °F 86% 29.66 in 5.0 mi ENE 15.0 mph 21.9 mph N/A   Overcast
3:16 AM 15.8 °F -0.6 °F 12.2 °F 86% 29.66 in 6.0 mi East 18.4 mph 25.3 mph N/A   Overcast
3:36 AM 15.8 °F 1.4 °F 12.2 °F 86% 29.67 in 10.0 mi East 13.8 mph 21.9 mph N/A   Overcast
3:56 AM 15.8 °F -0.2 °F 12.2 °F 86% 29.66 in 10.0 mi East 17.3 mph 23.0 mph N/A   Overcast
4:16 AM 15.8 °F 1.4 °F 12.2 °F 86% 29.66 in 10.0 mi ENE 13.8 mph 25.3 mph N/A   Overcast
4:36 AM 15.8 °F 1.4 °F 12.2 °F 86% 29.65 in 10.0 mi ENE 13.8 mph 25.3 mph N/A   Overcast
4:56 AM 15.8 °F -0.2 °F 12.2 °F 86% 29.65 in 10.0 mi ENE 17.3 mph 25.3 mph N/A   Overcast
5:16 AM 15.8 °F 0.3 °F 12.2 °F 86% 29.65 in 10.0 mi East 16.1 mph 21.9 mph N/A   Overcast
5:36 AM 15.8 °F 2.1 °F 12.2 °F 86% 29.64 in 10.0 mi East 12.7 mph 23.0 mph N/A   Overcast
5:56 AM 15.8 °F 0.9 °F 12.2 °F 86% 29.64 in 10.0 mi East 15.0 mph 23.0 mph N/A   Overcast
6:16 AM 15.8 °F 2.1 °F 12.2 °F 86% 29.64 in 10.0 mi East 12.7 mph 19.6 mph N/A   Overcast
6:36 AM 17.6 °F 5.7 °F 12.2 °F 79% 29.65 in 10.0 mi ENE 10.4 mph 20.7 mph N/A   Overcast
6:56 AM 17.6 °F 3.7 °F 12.2 °F 79% 29.65 in 10.0 mi East 13.8 mph 20.7 mph N/A   Overcast
7:16 AM 17.6 °F 2.7 °F 12.2 °F 79% 29.64 in 10.0 mi East 16.1 mph 21.9 mph N/A   Overcast
7:36 AM 17.6 °F 2.7 °F 12.2 °F 79% 29.64 in 10.0 mi ENE 16.1 mph 24.2 mph N/A   Overcast
7:56 AM 17.6 °F 2.2 °F 12.2 °F 79% 29.63 in 10.0 mi ENE 17.3 mph 25.3 mph N/A   Overcast
8:16 AM 17.6 °F 2.7 °F 12.2 °F 79% 29.64 in 10.0 mi ENE 16.1 mph 24.2 mph N/A   Overcast
8:36 AM 17.6 °F 2.2 °F 12.2 °F 79% 29.64 in 10.0 mi ENE 17.3 mph 24.2 mph N/A   Overcast
8:56 AM 17.6 °F 3.2 °F 12.2 °F 79% 29.64 in 10.0 mi ENE 15.0 mph 21.9 mph N/A   Overcast
9:16 AM 17.6 °F 2.7 °F 12.2 °F 79% 29.65 in 10.0 mi ENE 16.1 mph 24.2 mph N/A   Overcast
9:36 AM 17.6 °F 3.2 °F 12.2 °F 79% 29.65 in 10.0 mi ENE 15.0 mph 21.9 mph N/A   Overcast
9:56 AM 17.6 °F 2.7 °F 12.2 °F 79% 29.65 in 10.0 mi East 16.1 mph - N/A   Overcast
10:16 AM 17.6 °F 1.3 °F 12.2 °F 79% 29.64 in 10.0 mi East 19.6 mph 27.6 mph N/A   Overcast
10:36 AM 17.6 °F 2.2 °F 12.2 °F 79% 29.63 in 10.0 mi ENE 17.3 mph 26.5 mph N/A   Overcast
10:56 AM 17.6 °F 1.3 °F 12.2 °F 79% 29.63 in 3.0 mi East 19.6 mph 23.0 mph N/A   Overcast
11:16 AM 17.6 °F 2.7 °F 14.0 °F 86% 29.63 in 1.2 mi East 16.1 mph 23.0 mph N/A   Overcast
11:36 AM 17.6 °F 2.7 °F 14.0 °F 86% 29.63 in 1.8 mi East 16.1 mph 26.5 mph N/A   Overcast
11:56 AM 17.6 °F 2.2 °F 15.8 °F 93% 29.63 in 1.5 mi East 17.3 mph 21.9 mph N/A   Overcast
12:16 PM 17.6 °F 2.7 °F 15.8 °F 93% 29.63 in 1.0 mi East 16.1 mph 23.0 mph N/A   Overcast
12:36 PM 17.6 °F 3.2 °F 15.8 °F 93% 29.63 in 0.8 mi ENE 15.0 mph 20.7 mph N/A   Overcast
12:56 PM 17.6 °F 4.3 °F 15.8 °F 93% 29.62 in 1.0 mi East 12.7 mph 19.6 mph N/A   Overcast
1:16 PM 17.6 °F 3.2 °F 14.0 °F 86% 29.62 in 1.0 mi East 15.0 mph 20.7 mph N/A   Overcast
1:36 PM 17.6 °F 1.7 °F 14.0 °F 86% 29.62 in 1.0 mi East 18.4 mph 24.2 mph N/A   Overcast
1:56 PM 17.6 °F 2.2 °F 15.8 °F 93% 29.61 in 1.2 mi East 17.3 mph 24.2 mph N/A   Overcast
2:16 PM 17.6 °F 2.7 °F 15.8 °F 93% 29.61 in 2.0 mi East 16.1 mph 23.0 mph N/A   Overcast
2:36 PM 17.6 °F 2.7 °F 15.8 °F 93% 29.61 in 2.5 mi East 16.1 mph 24.2 mph N/A   Overcast
2:56 PM 17.6 °F 3.7 °F 15.8 °F 93% 29.60 in 2.0 mi ENE 13.8 mph 25.3 mph N/A   Overcast
3:16 PM 17.6 °F 3.2 °F 15.8 °F 93% 29.60 in 5.0 mi ENE 15.0 mph 21.9 mph N/A   Overcast
3:36 PM 17.6 °F 3.7 °F 15.8 °F 93% 29.61 in 10.0 mi East 13.8 mph 23.0 mph N/A   Overcast
3:56 PM 17.6 °F 2.7 °F 15.8 °F 93% 29.60 in 10.0 mi East 16.1 mph 20.7 mph N/A   Overcast
4:16 PM 17.6 °F 3.2 °F 15.8 °F 93% 29.61 in 10.0 mi East 15.0 mph 24.2 mph N/A   Overcast
4:36 PM 17.6 °F 4.3 °F 15.8 °F 93% 29.60 in 10.0 mi East 12.7 mph - N/A   Overcast
4:56 PM 19.4 °F 6.6 °F 15.8 °F 86% 29.61 in 10.0 mi East 12.7 mph 23.0 mph N/A   Overcast
5:16 PM 19.4 °F 6.0 °F 15.8 °F 86% 29.61 in 10.0 mi East 13.8 mph - N/A   Overcast
5:36 PM 19.4 °F 6.6 °F 15.8 °F 86% 29.61 in 10.0 mi ENE 12.7 mph - N/A   Overcast
5:56 PM 19.4 °F 6.0 °F 15.8 °F 86% 29.62 in 10.0 mi East 13.8 mph 18.4 mph N/A   Overcast
6:16 PM 19.4 °F 6.6 °F 15.8 °F 86% 29.61 in 10.0 mi East 12.7 mph 16.1 mph N/A   Overcast
6:36 PM 19.4 °F 7.2 °F 15.8 °F 86% 29.62 in 10.0 mi East 11.5 mph - N/A   Overcast
6:56 PM 19.4 °F 6.6 °F 15.8 °F 86% 29.62 in 10.0 mi East 12.7 mph 17.3 mph N/A   Overcast
7:16 PM 19.4 °F 6.6 °F 15.8 °F 86% 29.62 in 10.0 mi East 12.7 mph - N/A   Overcast
7:36 PM 19.4 °F 6.6 °F 15.8 °F 86% 29.62 in 10.0 mi East 12.7 mph 17.3 mph N/A   Overcast
7:56 PM 19.4 °F 7.9 °F 17.6 °F 93% 29.63 in 10.0 mi East 10.4 mph - N/A   Overcast
8:16 PM 19.4 °F 7.2 °F 17.6 °F 93% 29.63 in 10.0 mi East 11.5 mph - N/A   Overcast
8:36 PM 19.4 °F 6.0 °F 15.8 °F 86% 29.62 in 10.0 mi East 13.8 mph - N/A   Overcast
8:56 PM 19.4 °F 7.2 °F 14.0 °F 80% 29.63 in 10.0 mi East 11.5 mph 18.4 mph N/A   Overcast
9:16 PM 19.4 °F 6.0 °F 15.8 °F 86% 29.63 in 10.0 mi East 13.8 mph 18.4 mph N/A   Overcast
9:36 PM 19.4 °F 7.9 °F 15.8 °F 86% 29.63 in 10.0 mi ENE 10.4 mph 17.3 mph N/A   Overcast
9:56 PM 19.4 °F 6.6 °F 15.8 °F 86% 29.63 in 10.0 mi ENE 12.7 mph - N/A   Overcast
10:16 PM 19.4 °F 6.0 °F 15.8 °F 86% 29.63 in 10.0 mi East 13.8 mph 20.7 mph N/A   Overcast
10:36 PM 19.4 °F 7.2 °F 14.0 °F 80% 29.64 in 10.0 mi East 11.5 mph 19.6 mph N/A   Overcast
10:56 PM 17.6 °F 5.0 °F 14.0 °F 86% 29.63 in 10.0 mi ENE 11.5 mph - N/A   Mostly Cloudy
11:16 PM 17.6 °F 5.0 °F 14.0 °F 86% 29.63 in 10.0 mi East 11.5 mph 18.4 mph N/A   Scattered Clouds
11:36 PM 17.6 °F 5.0 °F 14.0 °F 86% 29.64 in 10.0 mi East 11.5 mph 17.3 mph N/A   Overcast
11:56 PM 17.6 °F 3.2 °F 14.0 °F 86% 29.63 in 10.0 mi ENE 15.0 mph - N/A   Mostly Cloudy